Regional Weather Roundup
Issued by NWS

Home | Current Version | Previous Version | Graphics & Text | Print | Product List | Glossary On
Versions: 1 2 3 4 5 6 7 8 9 10 11 12 13 14 15 16 17 18 19 20 21 22 23 24 25 26 27 28 29 30 31 32 33 34 35 36 37 38 39 40 41 42 43 44 45 46 47 48 49 50
000
ASUS43 KLMK 302310
RWRKY
KENTUCKY REGIONAL WEATHER ROUNDUP
NATIONAL WEATHER SERVICE LOUISVILLE KY
700 PM EDT SAT AUG 30 2014

NOTE "FAIR" INDICATES FEW OR NO CLOUDS BELOW 12,000 FEET
WITH NO SIGNIFICANT WEATHER AND/OR OBSTRUCTIONS TO VISIBILITY.

KYZ001>023-026-027-061>063-070>075-310000-
WESTERN AND SOUTH CENTRAL KENTUCKY

CITY           SKY/WX    TMP DP  RH WIND       PRES   REMARKS
PADUCAH        CLOUDY    78  73  84 S5        30.00S
HENDERSON      CLOUDY    72  68  88 S7        30.01S
OWENSBORO      LGT RAIN  72  72 100 S8          N/A
HOPKINSVILLE   CLOUDY    76  76 100 E3        30.04R
BOWLING GREEN  CLOUDY    78  71  79 CALM      30.05R
GLASGOW        CLOUDY    77  71  83 CALM      30.05S
$$

KYZ024-025-028>034-038-045-046-053-310000-
NORTH CENTRAL KENTUCKY

CITY           SKY/WX    TMP DP  RH WIND       PRES   REMARKS
LOUISVILLE/SDF LGT RAIN  75  71  87 SW7       30.03S
LOUISVILLE/LOU LGT RAIN  75  71  87 W7        30.04S FOG
FORT KNOX      CLOUDY    73  73  98 SW2       30.04S
$$

KYZ035>037-039>044-047>052-055>060-089>105-310000-
NORTHEAST KENTUCKY

CITY           SKY/WX    TMP DP  RH WIND       PRES   REMARKS
LEXINGTON      CLOUDY    83  70  64 SW5       30.05S
COVINGTON      LGT RAIN  74  70  87 S8        30.04S FOG
FRANKFORT      CLOUDY    77  68  73 NW6       30.04R
$$

KYZ054-064>069-076>088-106>120-310000-
SOUTHEAST KENTUCKY

CITY           SKY/WX    TMP DP  RH WIND       PRES   REMARKS
JACKSON        PTSUNNY   82  68  62 CALM      30.09R
LONDON         MOSUNNY   84  67  56 CALM      30.08S
SOMERSET       CLOUDY    82  66  57 CALM      30.07S
MIDDLESBORO    DRIZZLE   74  71  89 CALM      30.10R
MONTICELLO     MOCLDY    84  73  69 SE5       30.07S HX  90
$$




USA.gov is the U.S. government's official web portal to all federal, state and local government web resources and services.